OpenBCM V1.08-3-g9b42 (Linux)

Packet Radio Mailbox

OK0NBR

[Sao_Jose_dos_Campo]

 Login: GUEST





  
I0OJJ  > KEPS     10.12.25 11:42l 319 Lines 15156 Bytes #282 (0) @ AMSAT
BID : ORB25344.1
Read: GUEST
Subj: 2Line Orbital Elements 25344.AMSAT
Path: OK0NBR<SR8BBS<SR1BSZ<EA2RCF<I0OJJ
Sent: 251210/0021z @:I0OJJ.ITA.EU [Rome] obcm1.08-11-2-gbfe9
From: I0OJJ @ I0OJJ.ITA.EU (Gustavo)
To:   KEPS @ AMSAT
X-Info: This message was generated automatically


QST de W1STR

AMSAT Orbital Elements for Amateur Satellites in TLE Format
From Orbital Analysis Office
New England Sci-Tech STEM Education Center
Natick MA December 10, 2025
To all radio amateurs


These element sets describe the orbits of various satellites 
in use by the amateur radio community. For details see:
www.amsat.org/keplerian-elements-formats/

A daily update of element sets is available at:
www.amsat.org/tle/daily-bulletin.txt
or without bulletin text:
www.amsat.org/tle/dailytle.txt


AO-07
1 07530U 74089B   25343.80930324 -.00000040  00000-0  38376-4 0  9995
2 07530 101.9966 350.0462 0012354 132.1422  49.6084 12.53694082336787
UO-11
1 14781U 84021B   25343.83880723  .00003023  00000-0  31795-3 0  9998
2 14781  97.7811 306.9121 0009274  90.1798 270.0483 14.90125912228925
AO-27
1 22825U 93061C   25343.64213532  .00000256  00000-0  11464-3 0  9993
2 22825  98.7150  45.9021 0007411 300.0768  59.9679 14.30875171679890
FO-29
1 24278U 96046B   25343.51977169  .00000016  00000-0  54498-4 0  9991
2 24278  98.5465 213.0874 0349061 228.3456 128.7311 13.53262667447515
GO-32
1 25397U 98043D   25343.68621252  .00000189  00000-0  10194-3 0  9995
2 25397  98.9917 326.8279 0002137  62.2471 297.8923 14.24375772424353
ISS
1 25544U 98067A   25343.50984767  .00014141  00000-0  26026-3 0  9993
2 25544  51.6310 158.4724 0003400 223.8185 136.2534 15.49447168542357
NO-44
1 26931U 01043C   25343.80248543  .00000380  00000-0  17264-3 0  9994
2 26931  67.0517  14.0749 0007417 270.1602  89.8650 14.31852564263333
SO-50
1 27607U 02058C   25343.43233990  .00003462  00000-0  43028-3 0  9992
2 27607  64.5542 355.8210 0072085 297.2117  62.1655 14.82368788236321
CO-55
1 27844U 03031E   25343.77977749  .00000658  00000-0  30441-3 0  9990
2 27844  98.6765 349.7210 0009942  21.7473 338.4127 14.24175631164713
CO-57
1 27848U 03031J   25343.46369544  .00000563  00000-0  26700-3 0  9996
2 27848  98.6795 349.2737 0010152  39.6495 320.5424 14.23483841164385
RS-22
1 27939U 03042A   25343.86999124  .00001969  00000-0  31492-3 0  9991
2 27939  98.3364 157.9937 0011889 144.1346 345.9364 14.72957259187670
CO-58
1 28895U 05043F   25343.85838980  .00003465  00000-0  56078-3 0  9997
2 28895  98.2724 130.8875 0015412  86.8050 273.4920 14.71883027 73893
CO-65
1 32785U 08021C   25343.85003632  .00010355  00000-0  69511-3 0  9999
2 32785  97.8093 316.8973 0008054 323.6577  36.4102 15.06989892956654
CO-66
1 32791U 08021J   25343.68876029  .00026365  00000-0  10541-2 0  9991
2 32791  97.7445 328.7292 0000935 234.6777 125.4372 15.25086549958333
RS-30
1 32953U 08025A   25343.81335795 -.00000030  00000-0 -28351-3 0  9992
2 32953  82.5020 113.2433 0019117   7.5423 352.5941 12.43171473796169
SRMSAT
1 37841U 11058D   25343.76141566  .00000540  00000-0  14938-3 0  9998
2 37841  19.9704 125.9768 0011712 280.4028 107.1239 14.11510038731029
ZACUBE-1
1 39417U 13066B   25343.85488589  .00007657  00000-0  62460-3 0  9998
2 39417  97.8075 300.3953 0041784 156.1112 204.2062 14.99042284652345
Delfi-N3xt
1 39428U 13066N   25343.72292530  .00011985  00000-0  11213-2 0  9993
2 39428  97.8339 259.6418 0080992 115.1448 245.8199 14.91746535646340
GOMX-1
1 39430U 13066Q   25343.83568020  .00003884  00000-0  59629-3 0  9991
2 39430  97.6591 191.1426 0129916 325.9539  33.3381 14.68562571642116
LO-74
1 39440U 13066AA  25343.78818943  .00009002  00000-0  86649-3 0  9998
2 39440  97.8700 287.4631 0058248 295.8351  63.6867 14.91918680648735
AO-73
1 39444U 13066AE  25343.86426709  .00013055  00000-0  88590-3 0  9996
2 39444  97.8055 307.1073 0040296 125.2914 235.2092 15.05873664651130
DTUSAT-2
1 40030U 14033W   25343.69103611  .00012404  00000-0  73218-3 0  9997
2 40030  98.0763 324.9855 0009046 148.9679 211.2085 15.11653638624023
EO-80
1 40032U 14033Y   25343.70185781  .00013682  00000-0  80523-3 0  9995
2 40032  98.0642 324.3945 0009662  97.9130 262.3195 15.11730774624008
LILACSAT-2
1 40908U 15049K   25343.88581850  .00022918  00000-0  49371-3 0  9999
2 40908  97.4916   9.1798 0006914 208.4941 151.5930 15.44588132566463
IO-86
1 40931U 15052B   25151.18580175  .00001241  00000-0  78118-4 0  9996
2 40931   6.0006  24.0987 0012733 338.8432  21.1169 14.78805930523159
Horyu-4
1 41340U 16012D   25343.65758325  .00058343  00000-0  99028-3 0  9994
2 41340  30.9952 331.1368 0006771 202.9479 157.0869 15.50158670541072
Lapan A3
1 41603U 16040E   25343.88533829  .00006305  00000-0  20932-3 0  9991
2 41603  97.1432 341.5451 0009993 344.9404  15.1539 15.31516375525826
CAS-2T
1 41847U 16066G   25343.22815391  .00001863  00000-0  27184-3 0  9994
2 41847  98.4040  56.0024 0343542 345.8068  13.3652 14.44118885477375
TechnoSat
1 42829U 17042E   25343.73335291  .00006939  00000-0  51285-3 0  9990
2 42829  97.4041 144.0687 0018610  22.9677 337.2377 15.03373095458220
AO-91
1 43017U 17073E   25343.52772177  .00016063  00000-0  76013-3 0  9994
2 43017  97.4938 209.7970 0159862 261.6045  96.7035 15.08751083436759
S-Net D
1 43186U 18014G   25343.51619870  .00008851  00000-0  48669-3 0  9998
2 43186  97.5486 244.6302 0007637 327.0879  32.9876 15.14288164430038
S-Net B
1 43187U 18014H   25343.65636601  .00009242  00000-0  50831-3 0  9994
2 43187  97.5490 244.7496 0008120 320.3710  39.6928 15.14267084430059
S-Net A
1 43188U 18014J   25343.25160311  .00008574  00000-0  47156-3 0  9994
2 43188  97.5502 244.5238 0008090 322.8544  37.2127 15.14290356429998
S-Net C
1 43189U 18014K   25343.46107867  .00009456  00000-0  51995-3 0  9991
2 43189  97.5515 244.7766 0009287 312.0994  47.9448 15.14259342428577
Ten-Koh
1 43677U 18084G   25343.44687742  .00005302  00000-0  41150-3 0  9991
2 43677  98.0743 162.9336 0009434  32.7169 327.4637 15.01785252387677
PO-101
1 43678U 18084H   25343.84926770  .00004489  00000-0  37155-3 0  9998
2 43678  98.1025 167.1961 0007537  53.1450 307.0462 14.99412022387831
QO-100
1 43700U 18090A   25343.57065367  .00000147  00000-0  00000+0 0  9999
2 43700   0.0126 297.0553 0001292 337.9709  34.8141  1.00273103 25777
MinXSS-2
1 43758U 18099A   25343.42931497  .00034153  00000-0  10278-2 0  9996
2 43758  97.4795  50.7492 0008909 224.5707 135.4820 15.34254006384918
AO-95
1 43770U 18099N   25343.11074498  .00014762  00000-0  65312-3 0  9999
2 43770  97.4676  39.4198 0008491 300.9151  59.1249 15.21743571384266
SNUSat 2
1 43782U 18099AA  25343.56107192  .00013456  00000-0  66020-3 0  9995
2 43782  97.4354  35.0216 0009936 234.6532 125.3774 15.18180178384225
SnugLite
1 43784U 18099AC  25343.09882553  .00015189  00000-0  66483-3 0  9994
2 43784  97.4168  34.6017 0002045 220.0259 140.0827 15.22133687384358
ITASat 1
1 43786U 18099AE  25343.59577394  .00010571  00000-0  55262-3 0  9998
2 43786  97.4322  33.9724 0011952 296.1745  63.8258 15.15992123384158
EAGLET 1
1 43790U 18099AJ  25343.39386074  .00006791  00000-0  40915-3 0  9992
2 43790  97.4523  33.0171 0009916 283.2553  76.7571 15.11061460383656
ESEO
1 43792U 18099AL  25343.35396640  .00002723  00000-0  20400-3 0  9998
2 43792  97.4225  23.6772 0010764 260.6293  99.3716 15.03456001383272
JO-97
1 43803U 18099AX  25343.14535124  .00019443  00000-0  74258-3 0  9997
2 43803  97.4415  40.9731 0005634 215.5812 144.5052 15.26659824384561
Suomi 100
1 43804U 18099AY  25343.69946253  .00018750  00000-0  79377-3 0  9994
2 43804  97.4485  40.1835 0010058 223.3588 136.6858 15.23181089384521
ISAT
1 43879U 18111D   25343.68627397  .00049430  00000-0  11761-2 0  9996
2 43879  97.5904 263.2628 0003529 274.4361  85.6482 15.41471574381770
UWE-4
1 43880U 18111E   25343.50284317  .00032990  00000-0  99643-3 0  9999
2 43880  97.5852 259.9380 0007625 293.5295  66.5146 15.34156075381582
Sparrow
1 43881U 18111F   25343.74014757  .00055138  00000-0  12163-2 0  9995
2 43881  97.6087 267.0550 0003514 345.3394  14.7751 15.43712305381909
Prox-1
1 44339U 19036A   25343.54995097  .00020277  00000-0  22837-2 0  9999
2 44339  23.9967 295.8955 0006293   5.8181 354.2390 14.85058216345195
Taurus 1
1 44530U 19059C   25343.84261544  .00015766  00000-0  26867-2 0  9997
2 44530  98.6227 132.5361 0009003 182.8937 177.2216 14.69079329330814
Duchifat 3
1 44854U 19089C   25342.83480616  .09794280  36047-5  11773-2 0  9999
2 44854  36.9155 249.5046 0006919 243.1769 116.8309 16.35254048331523
TO-108
1 44881U 19093C   25343.80526307  .00001034  00000-0  12402-3 0  9995
2 44881  97.7758  55.5020 0013662 355.8025   4.3074 14.86090162323286
FloripaSat 1
1 44885U 19093G   25343.71110595  .00010401  00000-0  81361-3 0  9995
2 44885  97.8043  71.8894 0010812 347.0603  13.0341 15.01202454324199
RS-44
1 44909U 19096E   25343.73045507  .00000045  00000-0  13974-3 0  9995
2 44909  82.5206 105.6080 0216933 227.1443 131.1257 12.79745955278111
SALSAT
1 46495U 20068K   25343.71257245  .00013386  00000-0  51892-3 0  9993
2 46495  97.8785 330.8212 0008752 242.0865 117.9486 15.26241590286425
CSS (TIANHE-1)
1 48274U 21035A   25343.76804652  .00034797  00000-0  43651-3 0  9993
2 48274  41.4683  34.7466 0008894   6.5017 353.5936 15.58978246263562
TUBIN
1 48900U 21059X   25343.80477999  .01131662  84131-3  10392-2 0  9995
2 48900  97.6690 171.8110 0003775 279.5044  80.5813 16.12625687248858
CUTE
1 49263U 21088D   25343.17928020  .00038037  00000-0  50150-3 0  9994
2 49263  97.4350  65.8694 0004414 287.0693  73.0079 15.58316434232744
TeikyoSat 4
1 49396U 21102B   25343.81636550  .00003489  00000-0  22661-3 0  9992
2 49396  97.3902  15.5255 0011062 218.4158 141.6284 15.08624400224166
Z-Sat
1 49399U 21102E   25343.87373691  .00004110  00000-0  21429-3 0  9998
2 49399  97.3578  19.9027 0017029 181.8700 178.2472 15.16384699224738
